Skip Page Navigation
NASA JPL Caltech
NASA Logo - Jet Propulsion Laboratory + View the NASA Portal
+ Center for Near-Earth Object Studies
JPL Home Earth Solar System Stars & Galaxies Technology
JPL Solar System Dynamics
BODIES ORBITS EPHEMERIDES TOOLS PHYSICAL DATA DISCOVERY FAQ SITE MAP
IMPORTANT: The SSD Announcement email list is now available. Major changes are coming in the near future, including possible hostname and/or URL changes. To be notified of such changes, subscribe to this email list.

Please visit this page for more details.


JPL Small-Body Database Browser
Search: [ help ]  
80379 (1999 XV159)
Classification: Main-belt Asteroid          SPK-ID: 2080379
Ephemeris | Orbit Diagram | Orbital Elements | Mission Design | Physical Parameters | Discovery Circumstances | Close-Approach Data ]

[ show orbit diagram ]
Orbital Elements at Epoch 2458600.5 (2019-Apr-27.0) TDB
Reference: JPL 16 (heliocentric ecliptic J2000)
 Element Value Uncertainty (1-sigma)   Units 
e .1612116204451248 4.8202e-08  
a 2.611499807725445 1.5875e-08 au
q 2.190495691929894 1.2403e-07 au
i 12.53786802357036 6.0709e-06 deg
node 104.1786626972503 2.1909e-05 deg
peri 337.9685890085416 2.7853e-05 deg
M 217.5250119234381 1.7688e-05 deg
tp 2459210.555789099645
(2020-Dec-27.05578910)
7.7963e-05 TDB
period 1541.46413374574
4.22
1.4056e-05
3.848e-08
d
yr
n .2335441948462363 2.1295e-09 deg/d
Q 3.032503923520996 1.8434e-08 au
  Orbit Determination Parameters
   # obs. used (total)      638  
   data-arc span      8243 days (22.57 yr)  
   first obs. used      1995-10-29  
   last obs. used      2018-05-24  
   planetary ephem.      DE431  
   SB-pert. ephem.      SB431-N16  
   condition code      0  
   norm. resid. RMS      .50069  
   source      ORB  
   producer      Otto Matic  
   solution date      2018-May-31 15:30:02  

Additional Information
 Earth MOID = 1.21158 au 
 Jupiter MOID = 2.19517 au 
 T_jup = 3.357 
[ show covariance matrix ]

Ephemeris | Orbit Diagram | Orbital Elements | Mission Design | Physical Parameters | Discovery Circumstances | Close-Approach Data ]

Physical Parameter Table
Parameter Symbol Value Units Sigma Reference Notes
absolute magnitude H 15.1   n/a MPO449504  

80379 (1999 XV159)          Discovered 1999-Dec-08 by LINEAR at Socorro
Reference: 20040504/Numbers.arcLast Updated: 2004-07-16

[ show close-approach data ]
Ephemeris | Orbit Diagram | Orbital Elements | Mission Design | Physical Parameters | Discovery Circumstances | Close-Approach Data ]
ABOUT SSD CREDITS/AWARDS PRIVACY/COPYRIGHT GLOSSARY LINKS
FirstGov 2020-Jan-19 17:35 UT
(server date/time)  
NASA Home Page
Site Manager:   Ryan S. Park
Webmaster  Alan B. Chamberlin